Morristown, NJ

3:58 AM EDT on June 20, 2018 (GMT -0400)
Morristown Municipal

Weather History for KMMU - October, 2017

Change the Weather History Date:

Monday, October 2, 2017

  Actual Average Record
Temperature  
Mean Temperature 53 °F -  
Max Temperature 71 °F 68 °F 86 °F (1950)
Min Temperature 35 °F 45 °F 30 °F (1938)
Degree Days  
Heating Degree Days 12    
Growing Degree Days 3 (Base 50)    
Moisture  
Dew Point 41 °F    
Average Humidity 82    
Maximum Humidity 100    
Minimum Humidity 31    
Precipitation  
Precipitation 0.00 in - - ()
Sea Level Pressure  
Sea Level Pressure 30.39 in    
Wind  
Wind Speed 0 mph (East)    
Max Wind Speed 8 mph    
Max Gust Speed -    
Visibility 8 miles    
Events      
Averages and records for this station are not official NWS values.
T = Trace of Precipitation, MM = Missing Value Source: NWS Daily Summary

Daily Weather History Graph

Daily Weather History Graph

Search for Another Location

Airport or City:

Astronomy

Oct. 02, 2017 Rise Set
Actual Time 6:55 AM EDT 6:37 PM EDT
Civil Twilight 6:28 AM EDT 7:04 PM EDT
Nautical Twilight 5:56 AM EDT 7:36 PM EDT
Astronomical Twilight 5:24 AM EDT 8:08 PM EDT
Moon 5:14 PM EDT (10/2) 3:20 AM EDT (10/2)
Length of Visible Light 12h 36m
Length of Day
11h 42m
Waxing Gibbous, 89% of the Moon is Illuminated
Oct 2
Waxing Gibbous
Oct 5
Full
Oct 12
Last Quarter
Oct 19
New
Oct 27
First Quarter

Hourly Weather History & Observations

Time (EDT) Temp. Dew Point Humidity Pressure Visibility Wind Dir Wind Speed Gust Speed Precip Events Conditions
12:15 AM 41.0 °F 41.0 °F 100% 30.32 in 10.0 mi Calm Calm - N/A   Clear
12:35 AM 41.0 °F 39.2 °F 93% 30.32 in 10.0 mi Calm Calm - N/A   Clear
12:55 AM 41.0 °F 39.2 °F 93% 30.32 in 3.0 mi Calm Calm - N/A   Clear
1:15 AM 41.0 °F 39.2 °F 93% 30.32 in 2.0 mi Calm Calm - N/A   Clear
1:35 AM 39.2 °F 39.2 °F 100% 30.33 in 7.0 mi Calm Calm - N/A   Clear
1:55 AM 39.2 °F 39.2 °F 100% 30.33 in 10.0 mi Calm Calm - N/A   Clear
2:15 AM 39.2 °F 39.2 °F 100% 30.34 in 1.8 mi Calm Calm - N/A   Mist
2:35 AM 39.2 °F 39.2 °F 100% 30.33 in 4.0 mi Calm Calm - N/A   Clear
2:55 AM 39.2 °F 39.2 °F 100% 30.33 in 5.0 mi Calm Calm - N/A   Clear
3:15 AM 39.2 °F 37.4 °F 93% 30.33 in 1.2 mi Calm Calm - N/A   Mist
3:35 AM 37.4 °F 37.4 °F 100% 30.33 in 0.8 mi Calm Calm - N/A   Mist
3:55 AM 39.2 °F 37.4 °F 93% 30.33 in 3.0 mi Calm Calm - N/A   Clear
4:15 AM 37.4 °F 37.4 °F 100% 30.33 in 10.0 mi Calm Calm - N/A   Clear
4:35 AM 37.4 °F 37.4 °F 100% 30.34 in 1.2 mi Calm Calm - N/A   Mist
4:55 AM 37.4 °F 37.4 °F 100% 30.34 in 0.8 mi Calm Calm - N/A   Mist
5:15 AM 37.4 °F 37.4 °F 100% 30.34 in 1.5 mi Calm Calm - N/A   Mist
5:35 AM 37.4 °F 35.6 °F 93% 30.35 in 10.0 mi Calm Calm - N/A   Clear
5:55 AM 37.4 °F 37.4 °F 100% 30.35 in 10.0 mi Calm Calm - N/A   Clear
6:15 AM 35.6 °F 35.6 °F 100% 30.36 in 10.0 mi Calm Calm - N/A   Clear
6:35 AM 37.4 °F 37.4 °F 100% 30.37 in 10.0 mi Calm Calm - N/A   Clear
6:45 AM 37.4 °F 37.4 °F 100% 30.38 in 10.0 mi Calm Calm - N/A   Clear
7:45 AM 41.0 °F 37.4 °F 87% 30.41 in 10.0 mi Calm Calm - N/A   Clear
8:50 AM 50.0 °F 46.4 °F 87% 30.43 in 10.0 mi Calm Calm - N/A   Clear
9:45 AM 57.2 °F 48.2 °F 72% 30.44 in 15.0 mi East 5.8 mph - N/A   Clear
10:45 AM 62.6 °F 44.6 °F 52% 30.45 in 10.0 mi East 8.1 mph - N/A   Clear
11:45 AM 64.4 °F 44.6 °F 49% 30.44 in 15.0 mi NE 4.6 mph - N/A   Clear
12:45 PM 66.2 °F 41.0 °F 40% 30.42 in 15.0 mi Calm Calm - N/A   Clear
12:46 PM 66.2 °F 41.0 °F 40% 30.42 in 15.0 mi Calm Calm - N/A   Clear
1:45 PM 66.2 °F 41.0 °F 40% 30.42 in 15.0 mi Calm Calm - N/A   Clear
1:46 PM 69.8 °F 39.2 °F 33% 30.40 in 10.0 mi Calm Calm - N/A   Clear
2:45 PM 71.6 °F 39.2 °F 31% 30.39 in 10.0 mi Calm Calm - N/A   Clear
3:45 PM 71.6 °F 39.2 °F 31% 30.39 in 10.0 mi Calm Calm - N/A   Clear
4:45 PM 71.6 °F 39.2 °F 31% 30.40 in 10.0 mi Variable 4.6 mph - N/A   Clear
5:45 PM 69.8 °F 44.6 °F 40% 30.41 in 10.0 mi SSE 3.5 mph - N/A   Clear
6:45 PM 57.2 °F 50.0 °F 77% 30.43 in 10.0 mi Calm Calm - N/A   Clear
7:45 PM 53.6 °F 48.2 °F 82% 30.45 in 10.0 mi Calm Calm - N/A   Clear
8:45 PM 50.0 °F 46.4 °F 87% 30.48 in 10.0 mi Calm Calm - N/A   Clear
9:45 PM 48.2 °F 46.4 °F 93% 30.50 in 10.0 mi Calm Calm - N/A   Clear
10:35 PM 44.6 °F 44.6 °F 100% 30.51 in 10.0 mi Calm Calm - N/A   Clear
10:55 PM 44.6 °F 42.8 °F 93% 30.52 in 10.0 mi Calm Calm - N/A   Clear
11:15 PM 44.6 °F 42.8 °F 93% 30.52 in 10.0 mi Calm Calm - N/A   Clear
11:35 PM 44.6 °F 42.8 °F 93% 30.52 in 10.0 mi Calm Calm - N/A   Clear
11:55 PM 42.8 °F 42.8 °F 100% 30.52 in 10.0 mi Calm Calm - N/A   Clear